Seretse Khama, Botswana

5:50 PM CAT on April 20, 2018 (GMT +0200)
Seretse Khama

Weather History for FBSK - March, 2013

Change the Weather History Date:

Monday, March 4, 2013

  Actual Average Record
Temperature  
Mean Temperature 76 °F -  
Max Temperature 87 °F 82 °F 98 °F (2012)
Min Temperature 64 °F 61 °F 59 °F (2015)
Cooling Degree Days 10    
Growing Degree Days 26 (Base 50)    
Moisture  
Dew Point 58 °F    
Average Humidity 57    
Maximum Humidity 83    
Minimum Humidity 29    
Precipitation  
Precipitation 0.00 in - - ()
Sea Level Pressure  
Sea Level Pressure 30.20 in    
Wind  
Wind Speed 6 mph ()    
Max Wind Speed 10 mph    
Max Gust Speed -    
Visibility 6.2 miles    
Events      
Averages and records for this station are not official NWS values.
T = Trace of Precipitation, MM = Missing Value Source: Averaged Metar Reports

Daily Weather History Graph

Daily Weather History Graph

Search for Another Location

Airport or City:

Astronomy

Mar. 04, 2013 Rise Set
Actual Time 6:12 AM CAT 6:42 PM CAT
Civil Twilight 5:49 AM CAT 7:05 PM CAT
Nautical Twilight 5:22 AM CAT 7:32 PM CAT
Astronomical Twilight 4:55 AM CAT 8:00 PM CAT
Moon 11:40 PM CAT (3/4) 12:29 PM CAT (3/4)
Length of Visible Light 13h 16m
Length of Day
12h 30m
Waning Gibbous, 56% of the Moon is Illuminated
Mar 4
Waning Gibbous
Mar 4
Last Quarter
Mar 11
New
Mar 19
First Quarter
Mar 27
Full

Hourly Weather History & Observations

Time (CAT) Temp. Heat Index Dew Point Humidity Pressure Visibility Wind Dir Wind Speed Gust Speed Precip Events Conditions
2:00 AM 68.0 °F - 59.0 °F 73% 30.21 in - ENE 6.9 mph - N/A   Clear
3:00 AM 68.0 °F - 59.0 °F 73% 30.21 in - East 6.9 mph - N/A   Clear
4:00 AM 66.2 °F - 59.0 °F 78% 30.21 in - SE 3.5 mph - N/A   Clear
5:00 AM 66.2 °F - 59.0 °F 78% 30.21 in - East 6.9 mph - N/A   Clear
6:00 AM 64.4 °F - 59.0 °F 83% 30.24 in - ESE 6.9 mph - N/A   Clear
7:00 AM 66.2 °F - 60.8 °F 83% 30.30 in - ESE 5.8 mph - N/A   Clear
8:00 AM 69.8 °F - 60.8 °F 73% 30.27 in 6.2 mi NE 10.4 mph - N/A   Partly Cloudy
9:00 AM 73.4 °F - 60.8 °F 65% 30.27 in 6.2 mi NE 10.4 mph - N/A   Scattered Clouds
10:00 AM 77.0 °F - 60.8 °F 57% 30.27 in 6.2 mi ENE 10.4 mph - N/A   Mostly Cloudy
11:00 AM 80.6 °F 81.1 °F 59.0 °F 48% 30.24 in 6.2 mi ENE 9.2 mph - N/A   Scattered Clouds
12:00 PM 80.6 °F 81.1 °F 59.0 °F 48% 30.24 in 6.2 mi NNE 9.2 mph - N/A   Scattered Clouds
1:00 PM 82.4 °F 81.7 °F 55.4 °F 39% 30.21 in 6.2 mi ENE 10.4 mph - N/A   Scattered Clouds
2:00 PM 86.0 °F 84.2 °F 53.6 °F 33% 30.18 in 6.2 mi NE 9.2 mph - N/A   Partly Cloudy
3:00 PM 86.0 °F - 50.0 °F 29% 30.15 in 6.2 mi ENE 6.9 mph - N/A   Partly Cloudy
4:00 PM 87.8 °F - 51.8 °F 29% 30.12 in 6.2 mi ENE 6.9 mph - N/A   Partly Cloudy
5:00 PM 78.8 °F - 59.0 °F 51% 30.12 in 6.2 mi NW 3.5 mph - N/A   Partly Cloudy
6:00 PM 84.2 °F 82.8 °F 53.6 °F 35% 30.12 in 6.2 mi Calm Calm - N/A   Partly Cloudy
7:00 PM 78.8 °F - 59.0 °F 51% 30.12 in 6.2 mi NNW 2.3 mph - N/A   Partly Cloudy
8:00 PM 77.0 °F - 57.2 °F 50% 30.15 in - East 8.1 mph - N/A   Clear
9:00 PM 73.4 °F - 57.2 °F 57% 30.18 in - ENE 5.8 mph - N/A   Clear
10:00 PM 73.4 °F - 57.2 °F 57% 30.18 in - ENE 6.9 mph - N/A   Clear
11:00 PM 71.6 °F - 57.2 °F 60% 30.18 in - ESE 5.8 mph - N/A   Clear